Wind_Speed
2 11 6 11 14 12 12 21 15 17 21 11 8 10 17 34 29 22 20 21 17 21 33 43 47 49 51 49 49 50 50 52 54 54 50 48 49 45 41 41 41 39 42 42
3 9 12 11 13 15 14 11 8 20 14 8 19 27 18 27 25 28 29 28 26 22 30 39 45 47 50 48 48 47 46 49 51 53 50 48 50 49 44 43 45 43 43 46
4 4 10 13 9 14 8 8 11 16 10 8 9 11 18 32 37 36 38 39 38 30 28 34 44 45 47 48 49 46 47 46 48 51 50 48 47 50 49 46 46 48 45 45
4 4 7 4 8 8 17 18 15 9 7 12 16 32 39 42 43 42 40 40 37 29 32 34 40 46 46 46 48 49 49 49 48 48 47 47 48 50 51 49 48 48 49 47
4 5 11 18 4 5 2 8 8 15 10 9 29 22 21 26 32 38 32 31 19 22 23 27 34 40 44 46 46 46 48 50 48 46 46 47 48 50 53 53 51 50 50 49
1 6 7 1 2 10 3 6 10 8 16 17 9 7 9 38 31 32 31 29 23 23 21 29 33 37 40 41 42 48 47 46 46 46 47 47 46 49 51 53 53 52 51 51
12 6 7 4 9 8 7 7 17 14 19 18 10 20 37 24 19 23 21 19 20 14 10 21 29 33 36 39 43 41 43 43 45 45 46 44 47 47 48 52 52 52 51 52
7 6 18 2 7 4 4 14 18 24 28 27 30 28 28 14 14 15 17 14 11 11 11 12 16 19 22 28 29 34 36 37 42 43 45 48 46 45 45 44 46 47 44 46
10 7 6 12 13 14 15 16 18 24 30 25 28 24 20 18 15 13 13 12 10 8 8 8 3 8 14 19 23 24 28 32 35 39 43 44 45 46 41 39 41 46 47 45
9 9 9 15 8 8 9 11 14 14 8 10 21 21 25 25 24 21 21 21 18 16 16 16 12 9 6 6 15 20 24 25 28 34 37 38 40 42 44 47 50 52 52 51
8 17 4 8 4 4 6 1 3 9 13 18 28 28 28 27 26 23 24 22 19 18 17 16 14 12 9 8 9 9 9 17 20 23 31 34 36 40 44 44 41 37 35 34
9 12 7 3 3 6 2 8 11 21 27 24 27 31 30 29 26 21 19 16 15 16 14 15 13 13 14 14 15 14 15 16 15 17 23 30 34 38 39 38 36 34 35 39
16 27 19 10 7 9 7 16 18 22 28 28 27 27 29 30 27 24 22 19 17 15 13 12 11 10 11 14 16 17 18 19 16 16 20 24 33 35 29 28 36 38 34 29
25 25 9 9 5 15 17 24 26 25 26 27 27 26 26 29 27 27 26 23 20 17 15 14 13 11 9 9 9 9 10 12 18 15 17 24 33 36 33 34 39 33 21 23
21 24 17 20 19 18 22 26 29 27 26 28 28 26 25 28 28 27 23 21 21 21 25 21 20 18 9 6 8 8 9 9 4 7 14 26 36 37 38 35 32 28 23 16
21 24 25 25 28 27 28 28 27 24 19 23 26 31 31 30 29 27 23 21 24 28 27 24 22 21 17 12 12 6 8 6 6 14 14 17 14 13 26 15 12 10 13 23
25 17 22 29 25 31 30 31 24 21 19 18 29 28 26 28 28 24 24 23 23 25 25 26 21 20 16 16 13 9 9 8 4 6 12 6 7 11 11 7 10 8 14 31
30 26 26 26 24 25 25 24 22 21 22 23 28 30 29 27 25 21 21 19 19 22 24 24 25 20 19 15 15 15 13 7 8 11 13 14 14 10 9 18 14 16 34 35
24 16 22 24 25 24 23 20 19 15 17 24 29 31 28 27 26 24 22 20 21 24 22 18 13 16 19 16 13 13 14 14 11 11 4 7 12 13 13 14 24 24 24 24
29 29 28 27 29 29 27 27 26 26 25 27 29 30 29 27 27 27 25 28 26 23 19 17 16 14 8 11 15 10 5 6 10 12 11 11 11 11 12 15 18 20 22 25
40 44 39 34 34 32 29 31 31 33 34 33 32 30 29 27 27 27 29 32 28 24 21 16 15 16 13 9 5 5 9 14 10 9 7 6 8 11 12 9 12 16 18 17
33 33 34 37 34 32 31 30 28 28 28 28 25 25 25 22 23 26 29 28 24 25 24 23 21 20 12 11 11 9 7 4 4 2 6 4 2 9 12 13 15 16 19 22
34 34 33 31 28 29 31 32 30 27 27 26 23 22 23 23 23 26 27 21 19 21 23 26 23 19 15 15 13 10 12 12 13 13 13 12 7 5 6 8 5 5 6 14
31 31 30 29 26 26 29 29 29 30 29 28 26 26 27 26 25 24 21 19 19 19 21 21 22 23 22 20 19 19 15 10 8 9 10 12 12 10 12 10 10 8 5 6
27 28 29 29 28 27 25 24 25 26 25 24 23 23 21 21 19 19 17 17 16 16 17 19 20 21 22 22 21 20 19 22 18 10 8 6 5 7 8 7 7 7 6 9
25 27 27 26 25 24 24 22 24 23 22 23 25 25 22 20 18 17 17 18 18 18 19 19 19 19 19 19 20 21 18 16 13 12 16 15 12 8 5 5 8 8 5 3
22 20 20 20 20 20 19 17 16 18 19 19 20 20 20 19 18 18 18 19 19 20 19 18 17 17 16 15 14 15 16 17 17 15 12 12 18 19 9 9 12 10 1 5
Wind_Direction
246 285 252 247 255 264 233 225 221 240 240 238 240 234 232 243 239 236 250 244 249 249 235 226 225 230 233 237 234 234 235 237 239 240 239 238 236 236 237 235 237 235 232 232
278 267 296 281 264 256 248 240 258 263 254 212 216 227 234 251 246 242 244 244 255 260 243 233 228 230 231 232 236 234 236 240 239 238 238 236 235 234 235 237 237 237 235 234
262 305 320 297 254 234 231 201 211 242 230 212 238 219 220 237 244 246 250 258 262 260 252 243 233 233 232 235 233 235 238 237 237 236 236 235 233 232 233 236 238 238 238 238
239 313 245 245 311 283 240 233 215 223 235 205 220 237 240 241 241 248 255 259 259 255 257 248 242 236 239 235 238 238 238 236 233 233 235 235 233 232 232 233 236 238 238 240
200 213 297 304 345 22 59 287 261 220 215 214 230 256 264 248 253 250 255 251 255 271 268 250 236 234 236 234 236 236 234 235 233 233 234 233 234 232 231 232 234 236 240 241
160 205 228 259 152 264 194 254 13 325 222 223 182 219 250 262 256 254 250 249 264 263 256 242 237 234 236 235 235 237 239 239 238 235 235 234 237 235 234 234 237 238 238 242
228 249 279 241 306 305 196 288 320 318 290 283 193 219 235 249 253 241 234 242 233 233 249 235 231 236 242 241 239 250 245 240 239 237 238 245 240 238 237 236 237 239 241 244
208 235 237 22 315 203 333 318 308 301 283 273 239 219 227 241 196 192 193 194 205 216 221 232 234 235 240 248 259 249 246 246 246 244 240 239 240 237 236 237 239 239 240 243
199 214 234 179 222 278 296 286 303 293 290 274 244 216 181 156 148 147 142 137 130 122 105 90 93 229 238 242 249 254 256 259 258 253 250 247 242 238 234 235 247 245 238 239
274 261 224 227 265 284 303 289 303 289 279 206 185 150 135 129 120 115 107 101 98 99 91 85 73 62 47 288 270 269 267 267 268 262 257 250 246 244 243 237 237 231 235 236
286 257 224 192 233 281 305 240 81 89 100 106 125 118 113 109 108 104 100 95 88 80 73 66 55 44 30 9 353 341 308 268 261 261 258 251 243 242 247 245 241 226 222 219
233 244 216 220 212 159 150 100 83 92 92 91 95 102 105 99 99 97 91 88 80 70 58 47 30 15 5 352 336 325 314 309 299 273 251 246 240 237 237 234 237 234 233 227
257 270 259 163 157 135 124 97 90 87 87 88 90 95 96 95 90 89 85 78 68 56 40 25 13 4 347 326 318 314 301 294 279 257 251 244 232 224 218 214 220 216 198 176
244 245 187 172 153 127 114 97 91 87 91 90 93 99 100 97 94 87 80 76 71 64 58 55 49 42 19 360 344 335 336 303 273 255 242 232 223 215 198 184 159 151 147 164
250 212 204 141 134 115 107 100 91 85 83 88 88 95 95 91 89 88 86 82 78 70 64 72 63 56 58 49 27 348 356 314 278 248 229 210 199 195 182 171 164 152 168 185
149 147 127 118 109 107 99 89 81 74 63 77 90 91 91 95 94 89 91 85 76 68 62 59 56 53 48 55 51 43 26 34 62 199 210 193 158 167 162 192 228 210 226 235
97 105 100 87 96 94 91 89 97 114 135 107 84 91 93 85 86 84 80 81 81 76 67 59 54 54 59 58 63 66 84 93 56 161 166 211 124 142 203 137 209 165 202 212
102 85 89 90 93 95 99 105 102 94 92 98 93 87 84 84 87 88 87 80 76 75 66 60 56 57 59 59 58 63 75 120 185 165 177 181 187 179 177 190 139 166 180 172
95 86 94 93 97 103 103 100 96 105 99 87 84 80 81 83 84 84 80 77 67 60 48 42 44 56 61 63 62 68 74 78 93 110 164 191 198 178 184 177 186 166 161 164
75 84 85 85 93 89 91 93 90 91 85 89 88 85 82 79 72 73 74 65 56 57 50 40 36 42 48 51 56 66 94 118 104 98 99 99 112 124 146 159 156 162 173 172
68 65 67 71 74 78 82 84 82 83 84 79 77 78 80 80 76 75 67 61 52 50 48 44 40 38 34 50 55 59 63 60 80 99 114 126 133 143 142 159 173 185 189 195
67 71 68 62 66 76 83 86 85 84 86 87 85 84 82 78 73 69 66 65 59 53 49 45 35 25 56 66 66 86 105 110 94 48 81 77 176 177 178 199 218 200 211 213
61 64 69 76 81 83 80 79 80 81 80 77 75 74 73 74 72 68 69 65 60 55 51 48 47 49 57 56 59 84 100 103 115 128 126 122 121 102 88 90 103 174 193 203
66 67 68 68 68 67 71 76 75 74 76 79 81 83 80 79 79 80 80 71 57 50 54 51 47 45 51 55 56 52 55 59 79 103 125 128 145 134 112 111 120 143 174 184
64 65 67 68 72 72 72 72 72 72 76 78 77 77 81 84 84 84 77 70 61 52 53 49 47 47 51 50 53 58 46 50 46 58 68 74 117 162 169 182 195 197 219 229
71 70 70 69 71 69 65 60 63 65 67 70 71 73 78 81 81 75 71 68 63 59 54 49 44 44 47 52 56 57 55 30 38 46 36 49 53 47 82 118 152 166 178 232
64 60 58 56 56 55 52 49 50 65 65 67 72 69 68 68 68 66 62 58 58 58 57 56 50 46 43 43 47 48 51 53 58 55 53 47 34 29 6 351 3 340 11 147
Height
1435 1429 1426 1421 1416 1411 1412 1405 1411 1407 1407 1406 1404 1401 1395 1391 1390 1393 1394 1396 1396 1398 1400 1403 1408 1412 1417 1423 1429 1436 1443 1448 1451 1456 1466 1473 1479 1486 1491 1497 1500 1504 1509 1513
1438 1424 1416 1417 1409 1403 1402 1404 1406 1399 1401 1390 1387 1387 1388 1387 1387 1387 1387 1388 1390 1392 1395 1398 1401 1404 1407 1413 1418 1425 1432 1436 1443 1448 1456 1462 1469 1476 1481 1487 1492 1496 1500 1505
1441 1428 1423 1411 1392 1393 1392 1388 1391 1396 1390 1386 1383 1379 1380 1381 1382 1382 1382 1383 1384 1386 1387 1388 1392 1395 1401 1405 1411 1416 1419 1425 1432 1438 1444 1450 1458 1465 1470 1475 1483 1487 1491 1496
1444 1432 1428 1391 1379 1376 1374 1372 1373 1376 1375 1376 1374 1366 1366 1369 1370 1372 1375 1377 1376 1378 1378 1380 1383 1389 1393 1399 1401 1405 1408 1415 1421 1427 1434 1441 1447 1453 1459 1465 1469 1475 1481 1485
1437 1434 1401 1389 1383 1385 1390 1376 1363 1367 1368 1366 1365 1364 1358 1360 1363 1365 1367 1369 1371 1371 1371 1372 1376 1381 1386 1391 1396 1398 1401 1407 1411 1417 1424 1430 1434 1440 1446 1453 1458 1462 1467 1474
1434 1426 1412 1381 1381 1379 1380 1384 1365 1364 1355 1356 1359 1373 1363 1351 1355 1358 1360 1363 1365 1365 1365 1367 1371 1377 1381 1385 1388 1391 1395 1397 1402 1408 1413 1418 1423 1430 1437 1443 1448 1455 1459 1463
1425 1418 1397 1378 1376 1373 1384 1365 1359 1362 1357 1355 1351 1347 1346 1347 1348 1352 1356 1358 1358 1360 1361 1364 1369 1374 1377 1379 1379 1382 1387 1392 1395 1400 1405 1410 1415 1422 1428 1434 1439 1443 1448 1452
1428 1417 1400 1374 1375 1376 1366 1359 1359 1355 1347 1345 1343 1337 1342 1343 1346 1348 1349 1352 1355 1357 1359 1361 1365 1369 1372 1374 1377 1383 1387 1390 1393 1393 1396 1400 1405 1412 1420 1427 1434 1437 1439 1442
1400 1386 1372 1367 1368 1364 1364 1361 1353 1350 1340 1335 1337 1336 1337 1341 1346 1348 1348 1351 1354 1356 1357 1360 1363 1367 1372 1375 1378 1381 1383 1385 1387 1390 1394 1400 1401 1405 1407 1415 1427 1431 1428 1430
1391 1370 1366 1366 1365 1362 1360 1355 1349 1344 1335 1329 1331 1336 1336 1339 1343 1348 1348 1351 1354 1355 1357 1358 1362 1364 1367 1369 1372 1374 1377 1379 1383 1388 1392 1394 1398 1398 1403 1404 1396 1406 1408 1416
1381 1367 1364 1361 1359 1358 1357 1349 1346 1341 1330 1331 1332 1335 1336 1339 1343 1349 1350 1352 1353 1354 1357 1358 1361 1364 1365 1367 1368 1370 1372 1374 1376 1379 1382 1386 1389 1390 1394 1398 1402 1409 1408 1414
1371 1361 1361 1357 1356 1356 1354 1345 1344 1338 1333 1340 1339 1335 1337 1339 1343 1346 1349 1351 1353 1354 1357 1358 1360 1361 1361 1363 1364 1366 1367 1369 1369 1370 1373 1377 1379 1381 1385 1389 1395 1402 1407 1410
1364 1362 1359 1356 1355 1352 1353 1344 1345 1342 1339 1342 1342 1343 1342 1342 1345 1348 1351 1353 1354 1355 1356 1358 1359 1360 1360 1360 1361 1361 1361 1361 1363 1363 1364 1366 1368 1372 1379 1381 1382 1389 1395 1400
1357 1359 1359 1356 1354 1350 1348 1344 1346 1348 1348 1348 1348 1349 1350 1346 1349 1352 1354 1357 1358 1358 1358 1360 1360 1359 1360 1359 1359 1360 1359 1359 1358 1357 1359 1360 1362 1367 1372 1375 1378 1381 1389 1394
1347 1351 1351 1349 1349 1350 1343 1343 1344 1351 1358 1355 1351 1355 1350 1348 1350 1353 1358 1362 1362 1363 1361 1362 1361 1359 1359 1360 1360 1359 1357 1357 1357 1356 1356 1356 1357 1359 1361 1366 1376 1388 1399 1396
1343 1347 1344 1344 1344 1348 1343 1345 1349 1353 1364 1360 1357 1354 1355 1359 1359 1356 1364 1367 1365 1365 1364 1362 1360 1362 1362 1360 1360 1358 1357 1359 1358 1358 1361 1364 1364 1361 1360 1368 1372 1380 1390 1395
1345 1349 1347 1345 1349 1350 1352 1350 1364 1377 1382 1365 1346 1356 1363 1358 1361 1368 1371 1371 1370 1370 1370 1365 1367 1364 1363 1363 1362 1360 1361 1360 1360 1359 1362 1368 1365 1364 1365 1360 1366 1363 1370 1388
1344 1352 1353 1353 1356 1359 1364 1371 1376 1377 1374 1377 1369 1361 1364 1368 1370 1374 1375 1378 1378 1374 1371 1372 1370 1368 1367 1367 1364 1363 1362 1363 1364 1362 1365 1366 1367 1362 1364 1369 1358 1369 1387 1390
1356 1359 1362 1360 1363 1367 1371 1373 1374 1382 1381 1374 1369 1371 1377 1380 1379 1381 1377 1380 1381 1371 1375 1376 1378 1376 1373 1371 1368 1367 1369 1371 1370 1365 1368 1370 1372 1368 1369 1369 1374 1381 1385 1388
1368 1368 1367 1366 1368 1369 1373 1378 1379 1379 1379 1381 1383 1382 1383 1384 1383 1381 1386 1384 1380 1380 1382 1382 1382 1380 1378 1375 1374 1373 1374 1376 1373 1372 1374 1375 1376 1376 1380 1384 1385 1388 1392 1394
1375 1374 1372 1372 1373 1375 1380 1382 1383 1387 1389 1386 1387 1389 1392 1394 1393 1393 1390 1384 1384 1386 1388 1388 1386 1383 1381 1378 1378 1377 1379 1378 1377 1378 1382 1382 1380 1379 1380 1386 1389 1390 1396 1399
1394 1391 1390 1390 1390 1390 1389 1391 1393 1391 1392 1396 1395 1397 1396 1398 1399 1395 1391 1390 1394 1394 1394 1392 1390 1387 1384 1381 1381 1381 1381 1381 1383 1385 1383 1386 1386 1386 1388 1391 1394 1395 1399 1400
1409 1406 1404 1401 1402 1404 1404 1402 1402 1403 1400 1398 1402 1404 1401 1401 1400 1397 1397 1403 1403 1400 1399 1397 1395 1392 1388 1385 1385 1384 1385 1384 1384 1387 1388 1389 1390 1391 1393 1393 1395 1397 1398 1400
1418 1414 1413 1413 1413 1410 1407 1409 1407 1405 1406 1409 1412 1410 1407 1407 1406 1407 1410 1410 1408 1406 1403 1403 1399 1394 1391 1389 1389 1389 1388 1388 1388 1388 1389 1391 1394 1394 1393 1395 1397 1400 1403 1405
1430 1428 1427 1426 1425 1424 1423 1420 1416 1415 1417 1419 1419 1415 1412 1412 1414 1415 1415 1413 1411 1409 1408 1406 1403 1401 1398 1396 1395 1394 1394 1393 1394 1393 1394 1395 1396 1395 1394 1396 1398 1400 1402 1402
1437 1436 1437 1436 1434 1431 1427 1425 1424 1425 1425 1425 1422 1421 1420 1421 1421 1420 1418 1417 1415 1413 1410 1409 1407 1406 1405 1405 1404 1402 1399 1399 1399 1398 1400 1401 1401 1401 1398 1398 1399 1400 1401 1402
1444 1443 1441 1438 1436 1433 1432 1430 1429 1429 1429 1428 1427 1427 1426 1425 1425 1423 1421 1420 1419 1416 1416 1415 1413 1411 1410 1409 1408 1407 1406 1405 1402 1402 1403 1402 1403 1403 1400 1401 1401 1401 1400 1400